Regional Weather Roundup
Issued by NWS Charleston, WV

Home | Current Version | Previous Version | Graphics & Text | Print | Product List | Glossary On
Versions: 1 2 3 4 5 6 7 8 9 10 11 12 13 14 15 16 17 18 19 20 21 22 23 24 25 26 27 28 29 30 31 32 33 34 35 36 37 38 39 40 41 42 43 44 45 46 47 48 49 50
000
ASUS41 KRLX 091710
RWRRLX
West Virginia Regional Weather Roundup
National Weather Service Charleston WV
1200 PM EST TUE FEB 09 2016

Note: "fair" indicates few or no clouds below 12,000 feet with no
significant weather and/or obstructions to visibility.

WVZ003-091800-
Northern Panhandle of West Virginia

CITY           SKY/WX    TMP DP  RH WIND       PRES   REMARKS
WHEELING       SNOW      25  20  81 W10G22    29.61S VSB 1/2
$$

WVZ009-091800-
Northwest West Virginia

CITY           SKY/WX    TMP DP  RH WIND       PRES   REMARKS
PARKERSBURG    CLOUDY    24  19  81 W13G21    29.73S
$$

WVZ006-091800-
Western West Virginia

CITY           SKY/WX    TMP DP  RH WIND       PRES   REMARKS
HUNTINGTON     CLOUDY    25  15  66 W9        29.76F
$$

WVZ015-091800-
West Central West Virginia

CITY           SKY/WX    TMP DP  RH WIND       PRES   REMARKS
CHARLESTON     PTSUNNY   26  12  55 W13G20    29.73S
$$

WVZ022-031-091800-
North Central West Virginia

CITY           SKY/WX    TMP DP  RH WIND       PRES   REMARKS
CLARKSBURG     LGT SNOW  25  21  85 SW15      29.65F FOG
MORGANTOWN     LGT SNOW  24  18  77 SW12G21   29.63F VSB 1
$$

WVZ025-035-042-045-091800-
Southern West Virginia

CITY           SKY/WX    TMP DP  RH WIND       PRES   REMARKS
BECKLEY        LGT SNOW  21  15  78 W10       29.61F WCI  10
LOGAN          LGT SNOW  21  14  73 W10       29.71S
BLUEFIELD      FLURRIES  20  12  71 W12       29.60S WCI   8
LEWISBURG      CLOUDY    27  16  62 W10G16    29.61S
$$

WVZ047-091800-
Northern Mountains of West Virginia

CITY           SKY/WX    TMP DP  RH WIND       PRES   REMARKS
ELKINS         FLURRIES  24  14  65 W9        29.61F
$$

WVZ052-091800-
Eastern Panhandle of West Virginia

CITY           SKY/WX    TMP DP  RH WIND       PRES   REMARKS
MARTINSBURG    CLOUDY    36  29  75 W10       29.56S
PETERSBURG     CLOUDY    34  18  51 CALM      29.60F
$$



USA.gov is the U.S. government's official web portal to all federal, state and local government web resources and services.